Home   Weather   Ciudad del Este   Past weeks

Flag for Paraguay Past Weather in Ciudad del Este, Paraguay — Yesterday and Last 2 Weeks

Now
79 °F

Clear.


Feels Like: 82 °F
Forecast: 68 / 90 °F
Wind: 8 mph from South

Location: Aeropuerto Guarany

Current Time: Jan 18, 2017 at 11:44:03 pm

Latest Report: Jan 18, 2017 at 11:00 pm


Visibility: 10 mi

Pressure: 29.86 "Hg

Humidity: 79%

Dew Point: 72 °F

Location of Ciudad del EsteLocation

Past Weather in Ciudad del Este — Graph

°F

Ciudad del Este Temperature Yesterday

Maximum temperature yesterday: 88 °F (at 3:00 pm)
Minimum temperature yesterday: 70 °F (at 2:00 am)
Average temperature yesterday: 78 °F

High & Low Weather Summary for the Past Weeks

 TemperatureHumidityPressure
High97 °F (Jan 9, 3:00 pm)100% (Jan 5, 8:00 pm)29.98 "Hg (Jan 5, 8:00 pm)
Low70 °F (Jan 17, 2:00 am)47% (Jan 12, 5:00 pm)29.53 "Hg (Jan 15, 1:00 am)
Average81 °F80%29.81 "Hg
* Reported Jan 3 10:00 pm — Jan 18 10:00 pm, Ciudad del Este, Weather by CustomWeather, © 2017

Note: Actual official high and low records may vary slightly from our data, if they occured in-between our weather recording intervals... More about our weather records

Advertising

Ciudad del Este Weather History for the Previous 24 Hours

Scroll right to see more
 ConditionsComfort  
Time TempWeatherWind HumidityBarometerVisibility
10:00 pm
Wed, Jan 18
81 °FClear.8 mph74%29.83 "Hg10 mi
9:00 pm82 °FClear.7 mph70%29.80 "Hg10 mi
8:00 pm84 °FPassing clouds.7 mph66%29.77 "HgN/A
7:00 pm88 °FScattered clouds.6 mph62%29.77 "HgN/A
5:00 pm91 °FPartly sunny.14 mph49%29.74 "HgN/A
4:00 pm91 °FPartly sunny.14 mph52%29.77 "HgN/A
3:00 pm91 °FPartly sunny.12 mph52%29.80 "HgN/A
2:00 pm90 °FPartly sunny.12 mph55%29.80 "HgN/A
1:00 pm88 °FPartly sunny.12 mph59%29.83 "HgN/A
12:00 pm88 °FPartly sunny.12 mph59%29.83 "HgN/A
11:00 am86 °FPartly sunny.12 mph66%29.83 "HgN/A
10:30 am84 °FPartly sunny.14 mph66%29.83 "HgN/A
10:00 am84 °FPartly sunny.16 mph66%29.83 "HgN/A
9:30 am82 °FScattered clouds.12 mph70%29.83 "HgN/A
9:00 am81 °FPassing clouds.7 mph74%29.83 "HgN/A
8:30 am79 °FPassing clouds.5 mph79%29.83 "HgN/A
8:00 am77 °FPassing clouds.5 mph83%29.80 "HgN/A
7:00 am72 °FSunny.5 mph94%29.77 "Hg10 mi
6:00 am70 °FClear.5 mph94%29.77 "Hg10 mi
5:00 am72 °FClear.3 mph94%29.74 "Hg10 mi
4:00 am72 °FClear.3 mph94%29.74 "Hg10 mi
3:00 am72 °FClear.3 mph94%29.74 "Hg10 mi
1:00 am72 °FClear.3 mph94%29.74 "Hg10 mi
12:00 am73 °FClear.3 mph89%29.74 "Hg10 mi
11:00 pm
Tue, Jan 17
75 °FClear.6 mph83%29.71 "Hg10 mi
Weather by CustomWeather, © 2017

See weather overviewHow to use our weather pages